When you browse on this site, cookies collect data to enhance your experience and personalize the content and advertising you see.
Visit our Privacy Policy to learn more. By continuing to use the site, you agree to this use of cookies and data.
  • In United Kingdom
  • List of Countries
  • For 7 days
  • Water Temperature
  • Satellite Maps
  • Weather Map
  • Weather Widgets
  • user-avatar
    Login

    Hourly Weather Montichiari

    Today, 24 March, Sunday

    Time Temperature Precipitation Wind Pressure Humidity
    00:00 +13°C° 0 mm 1 mps 758 mmHg 59%
    01:00 +13°C° 0 mm 1 mps 758 mmHg 57%
    02:00 +13°C° 0 mm 1 mps 758 mmHg 58%
    03:00 +13°C° 0 mm 1 mps 758 mmHg 58%
    04:00 +12°C° 0 mm 1 mps 758 mmHg 59%
    05:00 +12°C° 0 mm 1 mps 757 mmHg 60%
    06:00 +12°C° 0 mm 1 mps 757 mmHg 60%
    07:00 +12°C° 0 mm 1 mps 757 mmHg 60%
    08:00 +14°C° 0 mm 1 mps 757 mmHg 56%
    09:00 +16°C° 0 mm 1 mps 757 mmHg 51%
    10:00 +19°C° 0 mm 1 mps 756 mmHg 47%
    11:00 +19°C° 0 mm 2 mps 756 mmHg 44%
    12:00 +21°C° 0 mm 2 mps 756 mmHg 42%
    13:00 +23°C° 0 mm 2 mps 755 mmHg 39%
    14:00 +23°C° 0 mm 2 mps 755 mmHg 39%
    15:00 +23°C° 0 mm 2 mps 754 mmHg 39%
    16:00 +23°C° 0 mm 2 mps 754 mmHg 38%
    17:00 +21°C° 0 mm 1 mps 754 mmHg 44%
    18:00 +19°C° 0 mm 1 mps 754 mmHg 49%
    19:00 +15°C° 0 mm 0 mps 754 mmHg 55%
    20:00 +16°C° 0 mm 1 mps 754 mmHg 56%
    21:00 +15°C° 0 mm 1 mps 754 mmHg 58%
    22:00 +14°C° 0 mm 1 mps 754 mmHg 59%
    23:00 +14°C° 0 mm 1 mps 754 mmHg 60%

    Tomorrow, 25 March, Monday

    Time Temperature Precipitation Wind Pressure Humidity
    00:00 +13°C° 0 mm 1 mps 754 mmHg 61%
    01:00 +13°C° 0 mm 1 mps 754 mmHg 62%
    02:00 +13°C° 0 mm 1 mps 753 mmHg 62%
    03:00 +12°C° 0 mm 1 mps 753 mmHg 62%
    04:00 +12°C° 0 mm 1 mps 752 mmHg 62%
    05:00 +12°C° 0 mm 1 mps 752 mmHg 62%
    06:00 +11°C° 0 mm 1 mps 752 mmHg 61%
    07:00 +11°C° 0 mm 1 mps 752 mmHg 61%
    08:00 +13°C° 0 mm 1 mps 751 mmHg 56%
    09:00 +15°C° 0 mm 2 mps 751 mmHg 51%
    10:00 +17°C° 0 mm 2 mps 751 mmHg 46%
    11:00 +18°C° 0 mm 2 mps 750 mmHg 45%
    12:00 +19°C° 0 mm 3 mps 749 mmHg 44%
    13:00 +20°C° 0 mm 3 mps 749 mmHg 42%
    14:00 +20°C° 0 mm 3 mps 748 mmHg 43%
    15:00 +20°C° 0 mm 3 mps 747 mmHg 43%
    16:00 +21°C° 0 mm 3 mps 747 mmHg 43%
    17:00 +19°C° 0 mm 3 mps 747 mmHg 48%
    18:00 +18°C° 0 mm 2 mps 747 mmHg 53%
    19:00 +16°C° 0 mm 2 mps 747 mmHg 58%
    20:00 +15°C° 0.1 mm 2 mps 748 mmHg 55%
    21:00 +13°C° 0.1 mm 3 mps 749 mmHg 53%
    22:00 +12°C° 0.1 mm 3 mps 750 mmHg 51%
    23:00 +10°C° 0.4 mm 5 mps 751 mmHg 56%

    Day after tomorrow, 26 March, Tuesday

    Time Temperature Precipitation Wind Pressure Humidity
    00:00 +9°C° 0.4 mm 6 mps 752 mmHg 61%
    01:00 +7°C° 0.4 mm 8 mps 753 mmHg 67%
    02:00 +6°C° 0.8 mm 7 mps 754 mmHg 68%
    03:00 +7°C° 0.8 mm 5 mps 755 mmHg 69%
    04:00 +6°C° 0.8 mm 4 mps 756 mmHg 70%
    05:00 +7°C° 0.1 mm 3 mps 757 mmHg 69%
    06:00 +7°C° 0.1 mm 2 mps 757 mmHg 68%
    07:00 +7°C° 0.1 mm 2 mps 757 mmHg 66%
    08:00 +8°C° 0 mm 2 mps 758 mmHg 57%
    09:00 +10°C° 0 mm 2 mps 758 mmHg 47%
    10:00 +12°C° 0 mm 2 mps 758 mmHg 37%
    11:00 +13°C° 0 mm 2 mps 758 mmHg 33%
    12:00 +13°C° 0 mm 3 mps 758 mmHg 29%
    13:00 +14°C° 0 mm 3 mps 757 mmHg 25%
    14:00 +14°C° 0 mm 3 mps 757 mmHg 26%
    15:00 +14°C° 0 mm 4 mps 757 mmHg 28%
    16:00 +14°C° 0 mm 4 mps 757 mmHg 29%
    17:00 +13°C° 0 mm 3 mps 757 mmHg 34%
    18:00 +11°C° 0 mm 3 mps 758 mmHg 39%
    19:00 +9°C° 0 mm 2 mps 758 mmHg 43%
    20:00 +9°C° 0 mm 2 mps 759 mmHg 43%
    21:00 +9°C° 0 mm 2 mps 759 mmHg 42%
    22:00 +8°C° 0 mm 2 mps 760 mmHg 42%
    23:00 +8°C° 0 mm 2 mps 760 mmHg 44%

    27 March, Wednesday

    Time Temperature Precipitation Wind Pressure Humidity
    00:00 +7°C° 0 mm 2 mps 760 mmHg 45%
    01:00 +7°C° 0 mm 2 mps 760 mmHg 47%
    02:00 +8°C° 0 mm 1 mps 760 mmHg 49%
    03:00 +7°C° 0 mm 1 mps 760 mmHg 51%
    04:00 +7°C° 0 mm 1 mps 760 mmHg 53%
    05:00 +7°C° 0 mm 1 mps 760 mmHg 54%
    06:00 +7°C° 0 mm 1 mps 760 mmHg 55%
    07:00 +7°C° 0 mm 1 mps 760 mmHg 56%
    08:00 +9°C° 0 mm 1 mps 760 mmHg 53%
    09:00 +10°C° 0 mm 1 mps 760 mmHg 49%
    10:00 +11°C° 0 mm 1 mps 760 mmHg 45%
    11:00 +12°C° 0 mm 1 mps 760 mmHg 43%
    12:00 +13°C° 0 mm 2 mps 760 mmHg 41%
    13:00 +14°C° 0 mm 2 mps 760 mmHg 39%
    14:00 +14°C° 0 mm 2 mps 759 mmHg 39%
    15:00 +14°C° 0 mm 2 mps 759 mmHg 39%
    16:00 +14°C° 0 mm 1 mps 759 mmHg 38%
    17:00 +13°C° 0 mm 1 mps 759 mmHg 43%
    18:00 +12°C° 0 mm 1 mps 760 mmHg 47%
    19:00 +10°C° 0 mm 1 mps 760 mmHg 51%
    20:00 +10°C° 0 mm 1 mps 761 mmHg 53%
    21:00 +9°C° 0 mm 1 mps 761 mmHg 54%
    22:00 +8°C° 0 mm 2 mps 762 mmHg 56%
    23:00 +7°C° 0 mm 2 mps 762 mmHg 57%

    28 March, Thursday

    Time Temperature Precipitation Wind Pressure Humidity
    00:00 +8°C° 0 mm 1 mps 762 mmHg 57%
    01:00 +8°C° 0 mm 1 mps 763 mmHg 58%
    02:00 +8°C° 0 mm 1 mps 762 mmHg 60%
    03:00 +7°C° 0 mm 1 mps 762 mmHg 61%
    04:00 +7°C° 0 mm 1 mps 762 mmHg 63%
    05:00 +7°C° 0 mm 1 mps 762 mmHg 64%
    06:00 +7°C° 0 mm 1 mps 762 mmHg 66%
    07:00 +7°C° 0 mm 1 mps 762 mmHg 68%
    08:00 +9°C° 0 mm 1 mps 762 mmHg 63%
    09:00 +10°C° 0 mm 1 mps 762 mmHg 58%
    10:00 +12°C° 0 mm 1 mps 762 mmHg 53%
    11:00 +13°C° 0 mm 1 mps 761 mmHg 51%
    12:00 +14°C° 0 mm 1 mps 761 mmHg 50%
    13:00 +15°C° 0 mm 2 mps 761 mmHg 48%
    14:00 +15°C° 0 mm 1 mps 760 mmHg 47%
    15:00 +15°C° 0 mm 1 mps 760 mmHg 47%
    16:00 +15°C° 0 mm 1 mps 760 mmHg 47%
    17:00 +14°C° 0 mm 1 mps 760 mmHg 51%
    18:00 +12°C° 0 mm 1 mps 761 mmHg 55%
    19:00 +11°C° 0 mm 1 mps 761 mmHg 59%
    20:00 +11°C° 0 mm 1 mps 762 mmHg 61%
    21:00 +10°C° 0 mm 1 mps 762 mmHg 63%
    22:00 +9°C° 0 mm 2 mps 763 mmHg 65%
    23:00 +8°C° 0 mm 2 mps 763 mmHg 65%

    29 March, Friday

    Time Temperature Precipitation Wind Pressure Humidity
    00:00 +8°C° 0 mm 2 mps 763 mmHg 66%
    01:00 +8°C° 0 mm 2 mps 762 mmHg 67%
    02:00 +8°C° 0 mm 2 mps 762 mmHg 67%
    03:00 +8°C° 0 mm 1 mps 762 mmHg 68%
    04:00 +8°C° 0 mm 1 mps 762 mmHg 69%
    05:00 +8°C° 0 mm 1 mps 762 mmHg 69%
    06:00 +8°C° 0 mm 1 mps 762 mmHg 70%
    07:00 +8°C° 0 mm 1 mps 762 mmHg 70%
    08:00 +10°C° 0 mm 1 mps 762 mmHg 63%
    09:00 +12°C° 0 mm 1 mps 762 mmHg 56%
    10:00 +14°C° 0 mm 1 mps 762 mmHg 49%
    11:00 +15°C° 0 mm 1 mps 761 mmHg 47%
    12:00 +16°C° 0 mm 1 mps 761 mmHg 44%
    13:00 +18°C° 0 mm 1 mps 760 mmHg 42%
    14:00 +18°C° 0 mm 1 mps 760 mmHg 41%
    15:00 +17°C° 0 mm 2 mps 760 mmHg 41%
    16:00 +17°C° 0 mm 2 mps 759 mmHg 41%
    17:00 +15°C° 0 mm 1 mps 759 mmHg 45%
    18:00 +14°C° 0 mm 1 mps 760 mmHg 49%
    19:00 +12°C° 0 mm 1 mps 760 mmHg 53%
    20:00 +12°C° 0 mm 1 mps 760 mmHg 53%
    21:00 +11°C° 0 mm 1 mps 761 mmHg 54%
    22:00 +10°C° 0 mm 1 mps 761 mmHg 55%
    23:00 +10°C° 0 mm 1 mps 761 mmHg 56%
    Show more